Regional Weather Roundup
Issued by NWS

Home | Current Version | Previous Version | Text Only | Print | Product List | Glossary Off
Versions: 1 2 3 4 5 6 7 8 9 10 11 12 13 14 15 16 17 18 19 20 21 22 23 24 25 26 27 28 29 30 31 32 33 34 35 36 37 38 39 40 41 42 43 44 45 46 47 48 49 50

034
ASUS44 KLIX 231810
RWRLA
LOUISIANA WEATHER ROUNDUP
NATIONAL WEATHER SERVICE NEW ORLEANS LA
100 PM CDT WED APR 23 2014

NOTE: "FAIR" INDICATES FEW OR NO CLOUDS BELOW 12,000 FEET WITH NO
      SIGNIFICANT WEATHER AND/OR OBSTRUCTIONS TO VISIBILITY.
      SKY/WX - SKY CONDITION AND SIGNIFICANT WEATHER.
      TMP - AIR TEMPERATURE.    DP   - DEWPOINT TEMPERATURE.
      RH  - RELATIVE HUMIDITY.  PRES - PRESSURE.
      HX  - HEAT INDEX.         WCI  - WIND CHILL INDEX.

*  THESE STATIONS ARE NOT NWS OR FAA STATIONS AND ARE NOT UNDER
   NWS QUALITY CONTROL.

LAZ040-048-061>063-065-066-069-231900-
SOUTHEAST LOUISIANA

CITY           SKY/WX    TMP DP  RH WIND       PRES   REMARKS
N.O. AUDUBON     N/A     84  60  44 MISG        N/A
6HR MIN TEMP:  61; 6HR MAX TEMP:  84;

N.O. INTL ARPT FAIR      81  62  52 N8        29.96F
6HR MIN TEMP:  62; 6HR MAX TEMP:  82;

N.O. LAKEFRONT FAIR      75  66  73 NW8       29.97F
6HR MIN TEMP:  68; 6HR MAX TEMP:  75;

N.O. DOWNTOWN* FAIR      79  57  47 NE5       29.97F
6HR MIN TEMP:  66; 6HR MAX TEMP:  81;

SLIDELL        PTSUNNY   79  60  52 VRB5      29.95F
6HR MIN TEMP:  57; 6HR MAX TEMP:  82;

BATON ROUGE    FAIR      83  55  38 VRB6      29.97F
6HR MIN TEMP:  59; 6HR MAX TEMP:  84;

BOOTHVILLE     FAIR      77  65  66 NE3       29.98F
6HR MIN TEMP:  64; 6HR MAX TEMP:  77;

BELLE CHASSE   PTSUNNY   82  58  43 CALM      29.95F
6HR MIN TEMP:  57; 6HR MAX TEMP:  82;

BOGALUSA*        N/A     83  54  37 CALM      29.97F
6HR MIN TEMP:  57; 6HR MAX TEMP:  83;

GALLIANO*      NOT AVBL
NEW ROADS*     FAIR      80  55  42 CALM      29.97F
6HR MIN TEMP:  56; 6HR MAX TEMP:  80;

GONZALES*      NOT AVBL
HAMMOND*       FAIR      84  52  32 N3        29.97F
HOUMA*         SUNNY     82  55  39 NW3       29.97F
PORT FOURCHON* MOCLDY    75  64  69 CALM      29.99F

$$

LAZ041-044-053-054-231900-
SOUTHWEST LOUISIANA

CITY           SKY/WX    TMP DP  RH WIND       PRES   REMARKS
LAKE CHARLES   CLOUDY    79  57  46 VRB5      29.97F
6HR MIN TEMP:  67; 6HR MAX TEMP:  81;

LAFAYETTE      FAIR      80  57  45 CALM      29.97F
6HR MIN TEMP:  59; 6HR MAX TEMP:  81;

PATTERSON      PTSUNNY   79  61  53 NE3       30.00F
6HR MIN TEMP:  57; 6HR MAX TEMP:  81;

SALT POINT       N/A     78  67  68 SW8       29.97F
6HR MIN TEMP:  65; 6HR MAX TEMP:  81;

NEW IBERIA     FAIR      82  60  47 VRB5      29.98F
6HR MIN TEMP:  60; 6HR MAX TEMP:  82;

CHENAULT AIRPK MOSUNNY   82  61  47 SE7       29.98F

$$

LAZ027-028-231900-
CENTRAL LOUISIANA

CITY           SKY/WX    TMP DP  RH WIND       PRES   REMARKS
FORT POLK      PTSUNNY   81  55  40 S6        29.96F
6HR MIN TEMP:  58; 6HR MAX TEMP:  81;

ALEXANDRIA INT FAIR      81  57  43 VRB6      29.96F
6HR MIN TEMP:  56; 6HR MAX TEMP:  82;

ALEXANDRIA     FAIR      83  49  30 MISG      29.97F
6HR MIN TEMP:  54; 6HR MAX TEMP:  84;


$$

LAZ001-002-231900-
NORTHWEST LOUISIANA

CITY           SKY/WX    TMP DP  RH WIND       PRES   REMARKS
SHREVEPORT     FAIR      81  60  48 VRB6      29.94F
6HR MIN TEMP:  58; 6HR MAX TEMP:  82;

BARKSDALE AFB  FAIR      81  59  45 SE9       29.95F
6HR MIN TEMP:  59; 6HR MAX TEMP:  81;

DTN SHREVEPORT FAIR      79  62  56 SE9       29.95F
6HR MIN TEMP:  59; 6HR MAX TEMP:  79;


$$

LAZ014-016-231900-
NORTHEAST LOUISIANA

CITY           SKY/WX    TMP DP  RH WIND       PRES   REMARKS
MONROE         FAIR      80  49  33 VRB6      29.99F
6HR MIN TEMP:  54; 6HR MAX TEMP:  80;

TALLULAH       FAIR      79  44  28 N7        29.98F
6HR MIN TEMP:  55; 6HR MAX TEMP:  79;


$$




USA.gov is the U.S. government's official web portal to all federal, state and local government web resources and services.